TimeEST,TemperatureF,Dew PointF,Humidity,Sea Level PressureIn,VisibilityMPH,Wind Direction,Wind SpeedMPH,Gust SpeedMPH,PrecipitationIn,Events,Conditions,WindDirDegrees,DateUTC
12:10 AM,6.8,1.4,79,30.14,1.8,WNW,8.1,-,0.00,Snow,Light Snow,300,2013-01-23 05:10:00
12:54 AM,7.0,1.0,77,30.15,1.5,NW,5.8,-,0.01,Snow,Light Snow,310,2013-01-23 05:54:00
1:54 AM,7.0,-0.0,73,30.16,2.5,WNW,6.9,-,0.00,Snow,Light Snow,300,2013-01-23 06:54:00
2:00 AM,6.8,-0.4,72,30.14,2.5,WNW,6.9,-,0.00,Snow,Light Snow,300,2013-01-23 07:00:00
2:45 AM,6.8,1.4,79,30.15,1.8,NW,4.6,-,0.00,Snow,Light Snow,310,2013-01-23 07:45:00
2:54 AM,7.0,1.0,77,30.17,1.5,West,4.6,-,0.00,Snow,Light Snow,270,2013-01-23 07:54:00
3:54 AM,7.0,1.9,80,30.16,2.0,West,3.5,-,0.01,Snow,Light Snow,280,2013-01-23 08:54:00
4:40 AM,6.8,-0.4,72,30.15,2.5,NE,8.1,-,0.00,Snow,Light Snow,50,2013-01-23 09:40:00
4:48 AM,6.8,-0.4,72,30.15,2.5,Variable,3.5,-,0.00,Snow,Light Snow,0,2013-01-23 09:48:00
4:54 AM,5.0,-0.9,76,30.17,2.5,ENE,4.6,-,0.00,Snow,Light Snow,60,2013-01-23 09:54:00
4:58 AM,3.2,-0.4,85,30.15,2.5,NE,5.8,-,0.00,Snow,Light Snow,50,2013-01-23 09:58:00
5:54 AM,1.9,-2.9,80,30.18,2.5,Calm,Calm,-,0.00,Snow,Light Snow,0,2013-01-23 10:54:00
5:59 AM,1.4,-2.2,85,30.16,2.5,Calm,Calm,-,0.00,Snow,Light Snow,0,2013-01-23 10:59:00
6:46 AM,3.2,-2.2,78,30.18,1.5,NNE,5.8,-,0.00,Snow,Light Snow,20,2013-01-23 11:46:00
6:54 AM,1.9,-2.9,80,30.20,1.8,North,6.9,-,0.01,Snow,Light Snow,10,2013-01-23 11:54:00
7:08 AM,1.4,-4.0,78,30.18,1.8,North,5.8,-,0.00,Snow,Light Snow,360,2013-01-23 12:08:00
7:31 AM,1.4,-5.8,72,30.18,2.0,NNE,5.8,-,0.00,Snow,Light Snow,20,2013-01-23 12:31:00
7:45 AM,1.4,-5.8,72,30.19,4.0,NNE,3.5,-,0.00,Snow,Light Snow,20,2013-01-23 12:45:00
7:54 AM,1.0,-5.1,75,30.21,5.0,NNE,4.6,-,0.00,Snow,Light Snow,20,2013-01-23 12:54:00
8:14 AM,1.4,-5.8,72,30.19,2.5,North,6.9,-,0.00,Snow,Light Snow,10,2013-01-23 13:14:00
8:40 AM,-0.4,-7.6,72,30.21,1.8,North,5.8,-,0.00,Snow,Light Snow,10,2013-01-23 13:40:00
8:52 AM,-0.4,-7.6,72,30.21,2.0,North,8.1,-,0.00,Snow,Light Snow,10,2013-01-23 13:52:00
8:54 AM,-0.9,-8.0,72,30.23,2.5,North,8.1,-,0.00,Snow,Light Snow,10,2013-01-23 13:54:00
9:22 AM,-0.4,-7.6,72,30.22,3.0,NNE,5.8,-,0.00,Snow,Light Snow,20,2013-01-23 14:22:00
9:54 AM,1.0,-8.0,66,30.25,6.0,North,5.8,-,0.00,Snow,Light Snow,350,2013-01-23 14:54:00
10:54 AM,1.9,-7.1,66,30.26,7.0,Calm,Calm,-,0.00,,Overcast,0,2013-01-23 15:54:00
11:54 AM,6.1,-5.1,60,30.24,10.0,Calm,Calm,-,N/A,,Scattered Clouds,0,2013-01-23 16:54:00
12:54 PM,6.1,-7.1,55,30.22,10.0,WNW,6.9,-,N/A,,Mostly Cloudy,290,2013-01-23 17:54:00
1:54 PM,7.0,-7.1,53,30.21,10.0,WNW,5.8,-,N/A,,Scattered Clouds,290,2013-01-23 18:54:00
2:54 PM,7.0,-6.0,55,30.20,10.0,NNW,3.5,-,N/A,,Overcast,340,2013-01-23 19:54:00
3:54 PM,7.0,-7.1,53,30.20,10.0,Calm,Calm,-,N/A,,Mostly Cloudy,0,2013-01-23 20:54:00
4:54 PM,6.1,-7.1,55,30.20,10.0,Calm,Calm,-,N/A,,Mostly Cloudy,0,2013-01-23 21:54:00
5:54 PM,3.9,-7.1,60,30.20,10.0,East,3.5,-,N/A,,Mostly Cloudy,80,2013-01-23 22:54:00
6:54 PM,3.0,-8.0,60,30.19,10.0,East,5.8,-,N/A,,Mostly Cloudy,90,2013-01-23 23:54:00
7:54 PM,1.9,-8.0,63,30.18,10.0,East,5.8,-,N/A,,Partly Cloudy,90,2013-01-24 00:54:00
8:54 PM,-0.0,-9.0,66,30.18,10.0,East,4.6,-,N/A,,Partly Cloudy,100,2013-01-24 01:54:00
9:54 PM,-2.0,-9.0,72,30.18,10.0,East,3.5,-,N/A,,Scattered Clouds,80,2013-01-24 02:54:00
10:54 PM,-2.9,-9.9,72,30.17,10.0,East,4.6,-,N/A,,Partly Cloudy,90,2013-01-24 03:54:00
11:54 PM,-4.0,-9.9,76,30.17,10.0,East,4.6,-,N/A,,Partly Cloudy,80,2013-01-24 04:54:00